Snoqualmie Pass
Mt. Washington
Latest observation 09/03 18:00 PDT
| Time (PDT) | Temp °F 4340' | Dir ° 4340' | RH % 4340' | SR W/m² 4340' |
|---|---|---|---|---|
| 09/03 18:00 | 40 | 187 | 83 | 9 |
| 09/03 17:00 | 43 | 185 | 54 | 9 |
| 09/03 16:00 | 43 | 182 | 95 | 10 |
| 09/03 15:00 | 45 | 180 | 86 | 11 |
| 09/03 14:00 | 44 | 78 | 87 | 11 |
| 09/03 13:00 | 46 | 168 | 87 | 11 |
| 09/03 12:00 | 46 | 179 | 87 | 11 |
| 09/03 11:00 | 44 | 139 | 93 | 11 |
| 09/03 10:00 | 42 | 170 | 95 | 11 |
| 09/03 09:00 | 41 | 96 | 77 | 11 |
| 09/03 08:00 | 40 | 164 | 68 | 11 |
| 09/03 07:00 | 39 | 247 | 57 | 4 |
| 09/03 06:00 | 39 | 231 | 60 | 0 |
| 09/03 05:00 | 39 | 244 | 95 | 0 |
| 09/03 04:00 | 39 | 232 | 95 | 0 |
| 09/03 03:00 | 39 | 213 | 97 | 0 |
| 09/03 02:00 | 39 | 241 | 99 | 0 |
| 09/03 01:00 | 39 | 223 | 100 | 0 |
| 09/03 00:00 | 39 | 210 | 100 | 0 |
| 09/02 23:00 | 39 | 206 | 100 | 0 |
| 09/02 22:00 | 40 | 226 | 100 | 0 |
| 09/02 21:00 | 41 | 214 | 100 | 0 |
| 09/02 20:00 | 41 | 210 | 47 | 7 |
| 09/02 19:00 | 43 | 199 | 24 | 9 |

